Location: Asheville, NC
(35.6000°N, 82.5500°W)
Time: 04:57:36
(UTC-04:00)

Vanguard 3 - Pass Details

Date: 14 February 2018
Orbit: 508 x 3264 km, 33.4° (Epoch: 20 May)

Event Time Altitude Azimuth Distance (km) Brightness Sun altitude
Rises 18:07:01 0° 247° (WSW) 2,631 12.6 0.0°
Reaches altitude 10° 18:09:12 10° 241° (WSW) 1,706 10.7 -0.4°
Maximum altitude 18:12:42 47° 166° (SSE) 698 6.9 -1.1°
Drops below altitude 10° 18:16:51 10° 92° (E) 2,013 8.6 -1.9°
Enters shadow 18:18:58 - 87° (E) 2,902 9.3 -2.4°
Sets 18:19:39 0° 86° (E) 3,184 - -2.5°
